Regional Weather Roundup
Issued by NWS Charleston, WV

Home | Current Version | Previous Version | Text Only | Print | Product List | Glossary Off
Versions: 1 2 3 4 5 6 7 8 9 10 11 12 13 14 15 16 17 18 19 20 21 22 23 24 25 26 27 28 29 30 31 32 33 34 35 36 37 38 39 40 41 42 43 44 45 46 47 48 49 50

000
ASUS41 KRLX 200610
RWRRLX
West Virginia Regional Weather Roundup
National Weather Service Charleston WV
200 AM EDT MON APR 20 2015

Note: "fair" indicates few or no clouds below 12,000 feet with no
significant weather and/or obstructions to visibility.

WVZ003-200700-
Northern Panhandle of West Virginia

CITY           SKY/WX    TMP DP  RH WIND       PRES   REMARKS
WHEELING       CLOUDY    55  50  83 SE20G25   29.55F
$$

WVZ009-200700-
Northwest West Virginia

CITY           SKY/WX    TMP DP  RH WIND       PRES   REMARKS
PARKERSBURG    LGT RAIN  58  54  86 SE9       29.57R
$$

WVZ006-200700-
Western West Virginia

CITY           SKY/WX    TMP DP  RH WIND       PRES   REMARKS
HUNTINGTON     MOCLDY    60  59  96 S9        29.56S
$$

WVZ015-200700-
West Central West Virginia

CITY           SKY/WX    TMP DP  RH WIND       PRES   REMARKS
CHARLESTON     MOCLDY    59  56  89 SE3       29.58S
$$

WVZ022-031-200700-
North Central West Virginia

CITY           SKY/WX    TMP DP  RH WIND       PRES   REMARKS
CLARKSBURG     LGT RAIN  58  53  84 E13       29.56F
MORGANTOWN     LGT RAIN  53  46  77 SE18G30   29.60F
$$

WVZ025-035-042-045-200700-
Southern West Virginia

CITY           SKY/WX    TMP DP  RH WIND       PRES   REMARKS
BECKLEY        MOCLDY    56  52  86 SE8       29.67F
LOGAN          MOCLDY    59  54  82 SE8       29.59S
BLUEFIELD        N/A     57  50  77 SW5       29.71F
LEWISBURG      CLOUDY    55  52  92 NE6       29.69F
$$

WVZ047-200700-
Northern Mountains of West Virginia

CITY           SKY/WX    TMP DP  RH WIND       PRES   REMARKS
ELKINS         LGT RAIN  54  51  90 CALM      29.67F
$$

WVZ052-200700-
Eastern Panhandle of West Virginia

CITY           SKY/WX    TMP DP  RH WIND       PRES   REMARKS
MARTINSBURG    HVY RAIN  51  50  96 NW7       29.76F FOG
PETERSBURG     HVY RAIN  48  44  85 W6        29.78R
$$


USA.gov is the U.S. government's official web portal to all federal, state and local government web resources and services.